Location: Frizzleburg
(41.0764°N, 80.4548°W)
Time: 20:46:50
(UTC+00:00)

BREEZE-M DEB (TANK) - Pass Details

Date: 17 November 2019
Orbit: 398 x 14925 km, 46.0° (Epoch: 12 December)

Event Time Altitude Azimuth Distance (km) Brightness Sun altitude
Exits shadow 10:16:41 41° 14° (NNE) 678 3.3 -21.6°
Drops below altitude 10° 10:19:05 10° 79° (E) 1,444 6.0 -21.1°
Sets 10:20:55 0° 88° (E) 2,352 7.6 -20.8°
